Location: Boiro
(42.6475°N, 8.8834°W)
Time: 18:54:47
(UTC+01:00)

A-11 Canister half - Pass Details

Date: 01 December 2021
Orbit: 1516 x 1684 km, 47.2° (Epoch: 26 January)

Event Time Altitude Azimuth Distance (km) Brightness Sun altitude
Rises 15:33:41 0° 296° (WNW) 4,913 11.7 18.9°
Reaches altitude 10° 15:36:54 10° 293° (WNW) 3,936 11.3 18.6°
Maximum altitude 15:46:42 57° 218° (SW) 1,924 10.5 17.6°
Drops below altitude 10° 15:56:30 10° 143° (SE) 3,920 11.4 16.6°
Sets 15:59:42 0° 140° (SE) 4,893 11.8 16.2°
